Year,Month,Day,Hour,Minute,Value (Times are PST for temperature in C)
2014,08,08,10,13,21.30
2014,08,08,10,14,21.30
2014,08,08,10,15,21.40
2014,08,08,10,16,21.40
2014,08,08,10,17,21.40
2014,08,08,10,18,21.40
2014,08,08,10,19,21.40
2014,08,08,10,20,21.40
2014,08,08,10,21,21.30
2014,08,08,10,22,21.30
2014,08,08,10,23,21.30
2014,08,08,10,24,21.30
2014,08,08,10,25,21.30
2014,08,08,10,26,21.30
2014,08,08,10,27,21.30
2014,08,08,10,28,21.30
2014,08,08,10,29,21.30
2014,08,08,10,30,21.40
2014,08,08,10,31,21.50
2014,08,08,10,32,21.50
2014,08,08,10,33,21.50
2014,08,08,10,34,21.50
2014,08,08,10,35,21.60
2014,08,08,10,36,21.70
2014,08,08,10,37,21.70
2014,08,08,10,38,21.70
2014,08,08,10,39,21.80
2014,08,08,10,40,21.80
2014,08,08,10,41,21.80
2014,08,08,10,42,21.80
2014,08,08,10,43,21.80
2014,08,08,10,44,21.80
2014,08,08,10,45,21.80
2014,08,08,10,46,21.80
2014,08,08,10,47,21.90
2014,08,08,10,48,21.90
2014,08,08,10,49,22.00
2014,08,08,10,50,22.00
2014,08,08,10,51,22.10
2014,08,08,10,52,22.10
2014,08,08,10,53,22.10
2014,08,08,10,54,22.00
2014,08,08,10,55,21.90
2014,08,08,10,56,21.90
2014,08,08,10,57,21.80
2014,08,08,10,58,21.90
2014,08,08,10,59,21.90
2014,08,08,11,00,21.90
2014,08,08,11,01,21.90
2014,08,08,11,02,21.80
2014,08,08,11,03,21.80
2014,08,08,11,04,21.80
2014,08,08,11,05,21.80
2014,08,08,11,06,21.80
2014,08,08,11,07,21.80
2014,08,08,11,08,21.80
2014,08,08,11,09,21.80
2014,08,08,11,10,21.80
2014,08,08,11,11,21.80
2014,08,08,11,12,21.80
2014,08,08,11,13,21.90
2014,08,08,11,14,22.00
2014,08,08,11,15,22.10
2014,08,08,11,16,22.20
2014,08,08,11,17,22.20
2014,08,08,11,18,22.30
2014,08,08,11,19,22.40
2014,08,08,11,20,22.40
2014,08,08,11,21,22.40
2014,08,08,11,22,22.40
2014,08,08,11,23,22.50
2014,08,08,11,24,22.60
2014,08,08,11,25,22.60
2014,08,08,11,26,22.50
2014,08,08,11,27,22.50
2014,08,08,11,28,22.40
2014,08,08,11,29,22.30
2014,08,08,11,30,22.20
2014,08,08,11,31,22.20
2014,08,08,11,32,22.20
2014,08,08,11,33,22.20
2014,08,08,11,34,22.20
2014,08,08,11,35,22.20
2014,08,08,11,36,22.20
2014,08,08,11,37,22.20
2014,08,08,11,38,22.30
2014,08,08,11,39,22.40
2014,08,08,11,40,22.40
2014,08,08,11,41,22.50
2014,08,08,11,42,22.50
2014,08,08,11,43,22.50
2014,08,08,11,44,22.50
2014,08,08,11,45,22.50
2014,08,08,11,46,22.50
2014,08,08,11,47,22.50
2014,08,08,11,48,22.60
2014,08,08,11,49,22.70
2014,08,08,11,50,22.70
2014,08,08,11,51,22.70
2014,08,08,11,52,22.70
2014,08,08,11,53,22.70
2014,08,08,11,54,22.70
2014,08,08,11,55,22.70
2014,08,08,11,56,22.70
2014,08,08,11,57,22.70
2014,08,08,11,58,22.70
2014,08,08,11,59,22.80
2014,08,08,12,00,22.80
2014,08,08,12,01,22.90
2014,08,08,12,02,23.00
2014,08,08,12,03,23.00
2014,08,08,12,04,23.00
2014,08,08,12,05,23.10
2014,08,08,12,06,23.10
2014,08,08,12,07,23.20
2014,08,08,12,08,23.20
2014,08,08,12,09,23.20
2014,08,08,12,10,23.30
2014,08,08,12,11,23.30
2014,08,08,12,12,23.30
2014,08,08,12,13,23.30
2014,08,08,12,14,23.30
2014,08,08,12,15,23.30
2014,08,08,12,16,23.30
2014,08,08,12,17,23.30
2014,08,08,12,18,23.40
2014,08,08,12,19,23.50
2014,08,08,12,20,23.60
2014,08,08,12,21,23.70
2014,08,08,12,22,23.80
2014,08,08,12,23,23.80
2014,08,08,12,24,23.90
2014,08,08,12,25,23.80
2014,08,08,12,26,23.80
2014,08,08,12,27,23.80
2014,08,08,12,28,23.80
2014,08,08,12,29,23.80
2014,08,08,12,30,23.90
2014,08,08,12,31,23.90
2014,08,08,12,32,24.00
2014,08,08,12,33,24.00
2014,08,08,12,34,24.10
2014,08,08,12,35,24.00
2014,08,08,12,36,24.00
2014,08,08,12,37,23.90
2014,08,08,12,38,23.90
2014,08,08,12,39,23.90
2014,08,08,12,40,23.80
2014,08,08,12,41,23.80
2014,08,08,12,42,23.80
2014,08,08,12,43,23.80
2014,08,08,12,44,23.70
2014,08,08,12,45,23.70
2014,08,08,12,46,23.80
2014,08,08,12,47,23.80
2014,08,08,12,48,23.80
2014,08,08,12,49,23.80
2014,08,08,12,50,23.80
2014,08,08,12,51,23.90
2014,08,08,12,52,24.00
2014,08,08,12,53,24.10
2014,08,08,12,54,24.20
2014,08,08,12,55,24.20
2014,08,08,12,56,24.30
2014,08,08,12,57,24.30
2014,08,08,12,58,24.30
2014,08,08,12,59,24.30
2014,08,08,13,00,24.30
2014,08,08,13,01,24.20
2014,08,08,13,02,24.20
2014,08,08,13,03,24.20
2014,08,08,13,04,24.20
2014,08,08,13,05,24.30
2014,08,08,13,06,24.20
2014,08,08,13,07,24.20
2014,08,08,13,08,24.10
2014,08,08,13,09,24.20
2014,08,08,13,10,24.20
2014,08,08,13,11,24.20
2014,08,08,13,12,24.30
2014,08,08,13,13,24.30
2014,08,08,13,14,24.30
2014,08,08,13,15,24.30
2014,08,08,13,16,24.30
2014,08,08,13,17,24.30
2014,08,08,13,18,24.30
2014,08,08,13,19,24.40
2014,08,08,13,20,24.40
2014,08,08,13,21,24.50
2014,08,08,13,22,24.50
2014,08,08,13,23,24.50
2014,08,08,13,24,24.40
2014,08,08,13,25,24.40
2014,08,08,13,26,24.40
2014,08,08,13,27,24.30
2014,08,08,13,28,24.20
2014,08,08,13,29,24.10
2014,08,08,13,30,24.00
2014,08,08,13,31,23.90
2014,08,08,13,32,23.90
2014,08,08,13,33,23.90
2014,08,08,13,34,24.00
2014,08,08,13,35,24.10
2014,08,08,13,36,24.10
2014,08,08,13,37,24.20
2014,08,08,13,38,24.20
2014,08,08,13,39,24.10
2014,08,08,13,40,24.10
2014,08,08,13,41,24.10
2014,08,08,13,42,24.10
2014,08,08,13,43,24.30
2014,08,08,13,44,24.40
2014,08,08,13,45,24.50
2014,08,08,13,46,24.60
2014,08,08,13,47,24.50
2014,08,08,13,48,24.50
2014,08,08,13,49,24.40
2014,08,08,13,50,24.30
2014,08,08,13,51,24.30
2014,08,08,13,52,24.20
2014,08,08,13,53,24.20
2014,08,08,13,54,24.20
2014,08,08,13,55,24.10
2014,08,08,13,56,24.00
2014,08,08,13,57,23.90
2014,08,08,13,58,23.80
2014,08,08,13,59,23.80
2014,08,08,14,00,23.70
2014,08,08,14,01,23.70
2014,08,08,14,02,23.60
2014,08,08,14,03,23.60
2014,08,08,14,04,23.60
2014,08,08,14,05,23.60
2014,08,08,14,06,23.70
2014,08,08,14,07,23.70
2014,08,08,14,08,23.90
2014,08,08,14,09,24.00
2014,08,08,14,10,24.10
2014,08,08,14,11,24.30
2014,08,08,14,12,24.40
2014,08,08,14,13,24.40
2014,08,08,14,14,24.50
2014,08,08,14,15,24.30
2014,08,08,14,16,24.10
2014,08,08,14,17,24.00
2014,08,08,14,18,23.80
2014,08,08,14,19,23.70
2014,08,08,14,20,23.70
2014,08,08,14,21,23.80
2014,08,08,14,22,23.90
2014,08,08,14,23,24.00
2014,08,08,14,24,24.00
2014,08,08,14,25,24.10
2014,08,08,14,26,24.20
2014,08,08,14,27,24.20
2014,08,08,14,28,24.20
2014,08,08,14,29,24.20
2014,08,08,14,30,24.20
2014,08,08,14,31,24.00
2014,08,08,14,32,23.70
2014,08,08,14,33,23.60
2014,08,08,14,34,23.40
2014,08,08,14,35,23.20
2014,08,08,14,36,23.10
2014,08,08,14,37,23.10
2014,08,08,14,38,23.10
2014,08,08,14,39,23.10
2014,08,08,14,40,23.10
2014,08,08,14,41,23.20
2014,08,08,14,42,23.10
2014,08,08,14,43,23.10
2014,08,08,14,44,23.10
2014,08,08,14,45,23.10
2014,08,08,14,46,23.10
2014,08,08,14,47,23.20
2014,08,08,14,48,23.30
2014,08,08,14,49,23.40
2014,08,08,14,50,23.50
2014,08,08,14,51,23.50
2014,08,08,14,52,23.40
2014,08,08,14,53,23.40
2014,08,08,14,54,23.40
2014,08,08,14,55,23.40
2014,08,08,14,56,23.50
2014,08,08,14,57,23.60
2014,08,08,14,58,23.70
2014,08,08,14,59,23.80
2014,08,08,15,00,23.80
2014,08,08,15,01,23.90
2014,08,08,15,02,23.90
2014,08,08,15,03,23.90
2014,08,08,15,04,23.90
2014,08,08,15,05,24.00
2014,08,08,15,06,24.00
2014,08,08,15,07,23.90
2014,08,08,15,08,23.80
2014,08,08,15,09,23.50
2014,08,08,15,10,23.30
2014,08,08,15,11,23.10
2014,08,08,15,12,23.00
2014,08,08,15,13,22.90
2014,08,08,15,14,22.90
2014,08,08,15,15,22.90
2014,08,08,15,16,22.90
2014,08,08,15,17,23.00
2014,08,08,15,18,23.10
2014,08,08,15,19,23.00
2014,08,08,15,20,22.90
2014,08,08,15,21,23.00
2014,08,08,15,22,23.00
2014,08,08,15,23,23.10
2014,08,08,15,24,23.00
2014,08,08,15,25,23.10
2014,08,08,15,26,23.10
2014,08,08,15,27,23.20
2014,08,08,15,28,23.30
2014,08,08,15,29,23.50
2014,08,08,15,30,23.60
2014,08,08,15,31,23.70
2014,08,08,15,32,23.70
2014,08,08,15,33,23.80
2014,08,08,15,34,23.70
2014,08,08,15,35,23.70
2014,08,08,15,36,23.60
2014,08,08,15,37,23.60
2014,08,08,15,38,23.60
2014,08,08,15,39,23.60
2014,08,08,15,40,23.60
2014,08,08,15,41,23.70
2014,08,08,15,42,23.70
2014,08,08,15,43,23.70
2014,08,08,15,44,23.70
2014,08,08,15,45,23.80
2014,08,08,15,46,23.80
2014,08,08,15,47,24.00
2014,08,08,15,48,24.00
2014,08,08,15,49,23.80
2014,08,08,15,50,23.70
2014,08,08,15,51,23.60
2014,08,08,15,52,23.50
2014,08,08,15,53,23.40
2014,08,08,15,54,23.30
2014,08,08,15,55,23.30
2014,08,08,15,56,23.20
2014,08,08,15,57,23.20
2014,08,08,15,58,23.30
2014,08,08,15,59,23.30
2014,08,08,16,00,23.30
2014,08,08,16,01,23.40
2014,08,08,16,02,23.40
2014,08,08,16,03,23.40
2014,08,08,16,04,23.40
2014,08,08,16,05,23.50
2014,08,08,16,06,23.50
2014,08,08,16,07,23.50
2014,08,08,16,08,23.40
2014,08,08,16,09,23.40
2014,08,08,16,10,23.30
2014,08,08,16,11,23.30
2014,08,08,16,12,23.20
2014,08,08,16,13,23.10
2014,08,08,16,14,23.10
2014,08,08,16,15,23.00
2014,08,08,16,16,22.90
2014,08,08,16,17,22.90
2014,08,08,16,18,22.90
2014,08,08,16,19,23.00
2014,08,08,16,20,23.10
2014,08,08,16,21,23.20
2014,08,08,16,22,23.20
2014,08,08,16,23,23.20
2014,08,08,16,24,23.20
2014,08,08,16,25,23.30
2014,08,08,16,26,23.40
2014,08,08,16,27,23.50
2014,08,08,16,28,23.60
2014,08,08,16,29,23.60
2014,08,08,16,30,23.70
2014,08,08,16,31,23.70
2014,08,08,16,32,23.70
2014,08,08,16,33,23.70
2014,08,08,16,34,23.70
2014,08,08,16,35,23.60
2014,08,08,16,36,23.60
2014,08,08,16,37,23.50
2014,08,08,16,38,23.60
2014,08,08,16,39,23.50
2014,08,08,16,40,23.50
2014,08,08,16,41,23.50
2014,08,08,16,42,23.50
2014,08,08,16,43,23.50
2014,08,08,16,44,23.60
2014,08,08,16,45,23.60
2014,08,08,16,46,23.70
2014,08,08,16,47,23.70
2014,08,08,16,48,23.80
2014,08,08,16,49,23.70
2014,08,08,16,50,23.70
2014,08,08,16,51,23.80
2014,08,08,16,52,23.80
2014,08,08,16,53,23.80
2014,08,08,16,54,23.80
2014,08,08,16,55,23.80
2014,08,08,16,56,23.90
2014,08,08,16,57,23.90
2014,08,08,16,58,23.90
2014,08,08,16,59,24.00
2014,08,08,17,00,24.10
2014,08,08,17,01,24.10
2014,08,08,17,02,24.20
2014,08,08,17,03,24.20
2014,08,08,17,04,24.10
2014,08,08,17,05,24.00
2014,08,08,17,06,23.90
2014,08,08,17,07,23.80
2014,08,08,17,08,23.80
2014,08,08,17,09,23.80
2014,08,08,17,10,23.80
2014,08,08,17,11,23.90
2014,08,08,17,12,23.90
2014,08,08,17,13,23.90
2014,08,08,17,14,23.90
2014,08,08,17,15,23.90
2014,08,08,17,16,23.90
2014,08,08,17,17,23.80
2014,08,08,17,18,23.80
2014,08,08,17,19,23.80
2014,08,08,17,20,23.80
2014,08,08,17,21,23.80
2014,08,08,17,22,23.80
2014,08,08,17,23,23.80
2014,08,08,17,24,23.80
2014,08,08,17,25,23.80
2014,08,08,17,26,23.70
2014,08,08,17,27,23.80
2014,08,08,17,28,23.90
2014,08,08,17,29,23.90
2014,08,08,17,30,23.90
2014,08,08,17,31,23.90
2014,08,08,17,32,23.80
2014,08,08,17,33,23.80
2014,08,08,17,34,23.80
2014,08,08,17,35,23.70
2014,08,08,17,36,23.80
2014,08,08,17,37,23.80
2014,08,08,17,38,23.80
2014,08,08,17,39,23.80
2014,08,08,17,40,23.90
2014,08,08,17,41,23.90
2014,08,08,17,42,23.90
2014,08,08,17,43,23.90
2014,08,08,17,44,23.90
2014,08,08,17,45,23.90
2014,08,08,17,46,23.90
2014,08,08,17,47,23.80
2014,08,08,17,48,23.80
2014,08,08,17,49,23.80
2014,08,08,17,50,23.70
2014,08,08,17,51,23.70
2014,08,08,17,52,23.70
2014,08,08,17,53,23.60
2014,08,08,17,54,23.60
2014,08,08,17,55,23.60
2014,08,08,17,56,23.60
2014,08,08,17,57,23.50
2014,08,08,17,58,23.60
2014,08,08,17,59,23.50
2014,08,08,18,00,23.50
2014,08,08,18,01,23.60
2014,08,08,18,02,23.50
2014,08,08,18,03,23.60
2014,08,08,18,04,23.50
2014,08,08,18,05,23.50
2014,08,08,18,06,23.50
2014,08,08,18,07,23.50
2014,08,08,18,08,23.40
2014,08,08,18,09,23.40
2014,08,08,18,10,23.40
2014,08,08,18,11,23.50
2014,08,08,18,12,23.50
2014,08,08,18,13,23.60
2014,08,08,18,14,23.60
2014,08,08,18,15,23.70
2014,08,08,18,16,23.70
2014,08,08,18,17,23.80
2014,08,08,18,18,23.80
2014,08,08,18,19,23.80
2014,08,08,18,20,23.80
2014,08,08,18,21,23.80
2014,08,08,18,22,23.70
2014,08,08,18,23,23.70
2014,08,08,18,24,23.60
2014,08,08,18,25,23.60
2014,08,08,18,26,23.60
2014,08,08,18,27,23.60
2014,08,08,18,28,23.70
2014,08,08,18,29,23.60
2014,08,08,18,30,23.60
2014,08,08,18,31,23.60
2014,08,08,18,32,23.60
2014,08,08,18,33,23.70
2014,08,08,18,34,23.70
2014,08,08,18,35,23.70
2014,08,08,18,36,23.70
2014,08,08,18,37,23.70
2014,08,08,18,38,23.80
2014,08,08,18,39,23.80
2014,08,08,18,40,23.80
2014,08,08,18,41,23.70
2014,08,08,18,42,23.70
2014,08,08,18,43,23.60
2014,08,08,18,44,23.60
2014,08,08,18,45,23.50
2014,08,08,18,46,23.50
2014,08,08,18,47,23.40
2014,08,08,18,48,23.40
2014,08,08,18,49,23.40
2014,08,08,18,50,23.50
2014,08,08,18,51,23.50
2014,08,08,18,52,23.50
2014,08,08,18,53,23.60
2014,08,08,18,54,23.60
2014,08,08,18,55,23.60
2014,08,08,18,56,23.60
2014,08,08,18,57,23.60
2014,08,08,18,58,23.60
2014,08,08,18,59,23.60
2014,08,08,19,00,23.60
2014,08,08,19,01,23.50
2014,08,08,19,02,23.50
2014,08,08,19,03,23.50
2014,08,08,19,04,23.40
2014,08,08,19,05,23.40
2014,08,08,19,06,23.40
2014,08,08,19,07,23.30
2014,08,08,19,08,23.30
2014,08,08,19,09,23.30
2014,08,08,19,10,23.20
2014,08,08,19,11,23.20
2014,08,08,19,12,23.20
2014,08,08,19,13,23.20
2014,08,08,19,14,23.10
2014,08,08,19,15,23.10
2014,08,08,19,16,23.10
2014,08,08,19,17,23.10
2014,08,08,19,18,23.10
2014,08,08,19,19,23.00
2014,08,08,19,20,23.00
2014,08,08,19,21,23.00
2014,08,08,19,22,22.90
2014,08,08,19,23,22.80
2014,08,08,19,24,22.80
2014,08,08,19,25,22.70
2014,08,08,19,26,22.70
2014,08,08,19,27,22.70
2014,08,08,19,28,22.60
2014,08,08,19,29,22.50
2014,08,08,19,30,22.50
2014,08,08,19,31,22.40
2014,08,08,19,32,22.40
2014,08,08,19,33,22.40
2014,08,08,19,34,22.40
2014,08,08,19,35,22.30
2014,08,08,19,36,22.30
2014,08,08,19,37,22.30
2014,08,08,19,38,22.30
2014,08,08,19,39,22.30
2014,08,08,19,40,22.30
2014,08,08,19,41,22.30
2014,08,08,19,42,22.20
2014,08,08,19,43,22.20
2014,08,08,19,44,22.20
2014,08,08,19,45,22.10
2014,08,08,19,46,22.10
2014,08,08,19,47,22.10
2014,08,08,19,48,22.10
2014,08,08,19,49,22.00
2014,08,08,19,50,22.00
2014,08,08,19,51,21.90
2014,08,08,19,52,21.90
2014,08,08,19,53,21.90
2014,08,08,19,54,21.80
2014,08,08,19,55,21.80
2014,08,08,19,56,21.80
2014,08,08,19,57,21.80
2014,08,08,19,58,21.70
2014,08,08,19,59,21.70
2014,08,08,20,00,21.70
2014,08,08,20,01,21.60
2014,08,08,20,02,21.60
2014,08,08,20,03,21.50
2014,08,08,20,04,21.40
2014,08,08,20,05,21.40
2014,08,08,20,06,21.40
2014,08,08,20,07,21.40
2014,08,08,20,08,21.40
2014,08,08,20,09,21.40
2014,08,08,20,10,21.40
2014,08,08,20,11,21.40
2014,08,08,20,12,21.40
2014,08,08,20,13,21.40
2014,08,08,20,14,21.40
2014,08,08,20,15,21.40
